Location: ?�kov
(49.4404°N, 15.1201°E)
Time: 19:01:35
(UTC+00:00)

SL-08 R/B - Pass Details

Date: 07 June 2020
Orbit: 674 x 739 km, 98.4° (Epoch: 10 July)

Event Time Altitude Azimuth Distance (km) Brightness Sun altitude
Exits shadow 01:55:00 -1° 175° (S) 3,094 6.2 -7.8°
Rises 01:55:09 0° 175° (S) 3,032 6.2 -7.8°
Reaches altitude 10° 01:57:25 10° 180° (S) 2,115 5.4 -7.6°
Maximum altitude 02:01:58 57° 259° (WSW) 801 3.4 -7.1°
Drops below altitude 10° 02:06:31 10° 338° (NNW) 2,121 6.2 -6.6°
Sets 02:08:48 0° 343° (NNW) 3,041 7.0 -6.3°
